Zurück zum Katalog

STARLINK-3509

AktivKommunikationVLEO
NORAD 51737·PAYLOAD·🇺🇸 United States

Gestartet Feb 21, 2022 von Cape Canaveral Space Force Station

Loading…

Nächste Überflüge (nächste 24 Stunden)

TLE

AktuellSource: CelesTrak SupGP

Epoche: Sep 15, 2026, 02:53 UTC

1 51737C 22016Z   26258.12062500  .00016446  00000+0  43657-3 0  2589
2 51737  53.1557 175.5598 0002801  90.6263 320.7290 15.37710768    17

Verfolge STARLINK-3509 in Echtzeit mit AllMySat

Download on the App Store